Tracking 31027 objects as of 19-Jul-2025
HD Live streaming from Space Station
objects crossing your sky now

COSMOS 642

Track COSMOS 642 now!
10-day predictions
COSMOS 642 is classified as:


NORAD ID: 7266
Int'l Code: 1974-024B
Perigee: 1,325.4 km
Apogee: 1,486.8 km
Inclination: 74.0 °
Period: 113.8 minutes
Semi major axis: 7777 km
RCS: 0.7579 m2 (medium)
Launch date: April 23, 1974
Source: Commonwealth of Independent States (former USSR) (CIS)
Launch site: PLESETSK MISSILE AND SPACE COMPLEX (PKMTR)
Your satellite tracking list
STARLINK-1243
Track 1 satellite(s)




NASA's NSSDC Master Catalog

Two Line Element Set (TLE):
1 07266U 74024B   25199.50247221 -.00000009  00000-0  42527-4 0  9991
2 07266  74.0191   8.3421 0103704 323.2028  91.5868 12.65832741367482
Source of the keplerian elements: AFSPC